Torna al catalogo

DMSP 5D-2 F13 DEB

AttivoSSO
NORAD 40405·DEBRIS·🇺🇸 United States

Lanciato Mar 24, 1995 da Vandenberg Space Force Base

Loading…

Prossimi Passaggi (prossime 24 ore)

TLE

AggiornatoSource: Space-Track

Epoca: Sep 14, 2026, 07:00 UTC

1 40405U 95015S   26257.29211683  .00001050  00000-0  47613-3 0  9997
2 40405  98.8659 281.0319 0122104  47.4095 313.7305 14.20145284595612

Traccia DMSP 5D-2 F13 DEB in tempo reale con AllMySat

Download on the App Store